Location: Quedlinburg
(51.7921°N, 11.1414°E)
Time: 06:38:49
(UTC+02:00)

METEOR M2 - Pass Details

Date: 21 March 2026
Orbit: 817 x 824 km, 98.5° (Epoch: 17 April)

Event Time Altitude Azimuth Distance (km) Brightness Sun altitude
Rises 03:34:26 0° 23° (NNE) 3,374 ? -24.3°
Reaches altitude 10° 03:37:16 10° 38° (NE) 2,436 ? -24.0°
Maximum altitude 03:41:34 24° 91° (E) 1,657 ? -23.4°
Drops below altitude 10° 03:45:50 10° 144° (SE) 2,419 ? -22.9°
Sets 03:48:38 0° 158° (SSE) 3,346 ? -22.5°
